Voltar ao catálogo

MIDAS 5

STRONGBACK

AtivoMilitarPO
NORAD 271·PAYLOAD·🇺🇸 United States

Lançado Apr 9, 1962 de Vandenberg Space Force Base

Loading…

Próximas Passagens (próximas 24 horas)

TLE

AtualizadoSource: Space-Track

Época: Sep 8, 2026, 05:01 UTC

1 00271U 62010A   26251.20951560  .00000011  00000-0  16395-2 0  9991
2 00271  86.6585 303.8071 0326917 287.7040  68.8433  9.41308646213489

Acompanhe MIDAS 5 em tempo real com AllMySat

Download on the App Store